CQH8751 ZSGS-ZSNB

Flight info

Callsign CQH8751
Flight time 1h 5m
Altitude 29100
Route 12083D P120 A599 ELNEX G204 SHZ SHZ91A
Aircraft A320/M-SDE3FGHIRWY/LB1

Departure

Time 2026-05-08 12:45
Airport Jinggangshan Airport (ZSGS)

Arrival

Time 2026-05-08 13:50
Airport Ningbo Lishe International Airport (ZSNB)
Time Latitude Longitude Altitude Speed Heading
2026-05-08 12:34 26.85558 114.74341 293 ft 0 kts 170°
2026-05-08 12:39 26.85566 114.74339 296 ft 3 kts 170°
2026-05-08 12:39 26.85587 114.74335 295 ft 3 kts 170°
2026-05-08 12:39 26.85611 114.74330 295 ft 3 kts 170°
2026-05-08 12:40 26.85632 114.74332 294 ft 3 kts 281°
2026-05-08 12:40 26.85627 114.74343 295 ft 0 kts 264°
2026-05-08 12:40 26.85627 114.74342 295 ft 0 kts 264°
2026-05-08 12:41 26.85609 114.74212 295 ft 15 kts 265°
2026-05-08 12:41 26.85653 114.74178 296 ft 6 kts 353°
2026-05-08 12:42 26.85702 114.74170 294 ft 13 kts 350°
2026-05-08 12:42 26.85792 114.74124 297 ft 15 kts 295°
2026-05-08 12:42 26.85794 114.73991 295 ft 19 kts 260°
2026-05-08 12:42 26.85765 114.73797 294 ft 39 kts 261°
2026-05-08 12:43 26.85713 114.73443 297 ft 47 kts 259°
2026-05-08 12:43 26.85660 114.73088 293 ft 45 kts 262°
2026-05-08 12:43 26.85610 114.72748 298 ft 44 kts 259°
2026-05-08 12:43 26.85562 114.72416 295 ft 40 kts 257°
2026-05-08 12:44 26.85533 114.72300 299 ft 8 kts 328°
2026-05-08 12:44 26.85550 114.72312 296 ft 4 kts 68°
2026-05-08 12:44 26.85552 114.72342 295 ft 1 kts 83°
2026-05-08 12:44 26.85553 114.72347 295 ft 0 kts 83°
2026-05-08 12:45 26.85561 114.72414 295 ft 39 kts 82°
2026-05-08 12:45 26.85663 114.73091 293 ft 133 kts 81°
2026-05-08 12:45 26.85854 114.74356 491 ft 186 kts 78°
2026-05-08 12:45 26.86077 114.75855 992 ft 206 kts 81°
2026-05-08 12:46 26.86313 114.77517 1520 ft 226 kts 78°
2026-05-08 12:46 26.86557 114.79268 2442 ft 227 kts 78°
2026-05-08 12:46 26.86797 114.81035 3408 ft 232 kts 78°
2026-05-08 12:46 26.87052 114.82836 4355 ft 238 kts 78°
2026-05-08 12:47 26.87259 114.84759 4861 ft 259 kts 88°
2026-05-08 12:47 26.87091 114.86794 5011 ft 265 kts 98°
2026-05-08 12:47 26.86708 114.88819 5117 ft 268 kts 101°
2026-05-08 12:47 26.86256 114.90859 5942 ft 271 kts 102°
2026-05-08 12:48 26.85804 114.92925 6899 ft 276 kts 103°
2026-05-08 12:48 26.85367 114.95051 7711 ft 285 kts 102°
2026-05-08 12:48 26.84946 114.97220 8497 ft 293 kts 102°
2026-05-08 12:48 26.84525 114.99481 9366 ft 300 kts 102°
2026-05-08 12:49 26.84105 115.01802 10174 ft 310 kts 103°
2026-05-08 12:49 26.83663 115.04261 10545 ft 335 kts 102°
2026-05-08 12:49 26.83187 115.06909 10782 ft 360 kts 102°
2026-05-08 12:49 26.82680 115.09745 10845 ft 378 kts 102°
2026-05-08 12:50 26.82165 115.12657 10903 ft 384 kts 102°
2026-05-08 12:50 26.81643 115.15610 11539 ft 389 kts 102°
2026-05-08 12:50 26.81112 115.18605 12241 ft 395 kts 102°
2026-05-08 12:50 26.80567 115.21642 12895 ft 401 kts 102°
2026-05-08 12:51 26.80012 115.24727 13543 ft 407 kts 102°
2026-05-08 12:51 26.79049 115.31071 14701 ft 419 kts 97°
2026-05-08 12:51 26.78712 115.34329 15273 ft 424 kts 96°
2026-05-08 12:52 26.78418 115.37633 15821 ft 429 kts 96°
2026-05-08 12:52 26.77820 115.44352 16907 ft 439 kts 96°
2026-05-08 12:52 26.77488 115.47763 17434 ft 443 kts 97°
2026-05-08 12:53 26.77135 115.51158 17957 ft 447 kts 97°
2026-05-08 12:53 26.76762 115.54624 18460 ft 451 kts 97°
2026-05-08 12:53 26.76381 115.58126 18745 ft 454 kts 97°
2026-05-08 12:53 26.75999 115.61638 18819 ft 456 kts 97°
2026-05-08 12:54 26.75618 115.65160 18831 ft 456 kts 97°
2026-05-08 12:54 26.75240 115.68680 18837 ft 456 kts 97°
2026-05-08 12:54 26.74862 115.72215 19181 ft 459 kts 97°
2026-05-08 12:54 26.74480 115.75774 19692 ft 462 kts 97°
2026-05-08 12:55 26.74093 115.79357 20132 ft 466 kts 97°
2026-05-08 12:55 26.73702 115.82969 20560 ft 470 kts 97°
2026-05-08 12:55 26.73305 115.86615 20993 ft 474 kts 97°
2026-05-08 12:55 26.73099 115.90305 21401 ft 478 kts 88°
2026-05-08 12:56 26.73456 115.94002 21841 ft 480 kts 77°
2026-05-08 12:56 26.74386 115.97577 22283 ft 479 kts 66°
2026-05-08 12:56 26.75857 116.00916 22689 ft 478 kts 55°
2026-05-08 12:56 26.77812 116.03916 23100 ft 476 kts 44°
2026-05-08 12:57 26.80067 116.06635 23480 ft 478 kts 42°
2026-05-08 12:57 26.82344 116.09360 23827 ft 481 kts 42°
2026-05-08 12:57 26.84638 116.12105 24151 ft 484 kts 42°
2026-05-08 12:57 26.86940 116.14866 24479 ft 486 kts 42°
2026-05-08 12:58 26.89247 116.17643 24681 ft 487 kts 42°
2026-05-08 12:58 26.91550 116.20427 24732 ft 487 kts 43°
2026-05-08 12:58 26.93853 116.23209 24736 ft 486 kts 42°
2026-05-08 12:58 26.96153 116.25983 24740 ft 486 kts 42°
2026-05-08 12:59 26.98457 116.28760 24735 ft 487 kts 42°
2026-05-08 12:59 27.00765 116.31540 24736 ft 487 kts 42°
2026-05-08 12:59 27.03044 116.34287 24738 ft 487 kts 42°
2026-05-08 12:59 27.05348 116.37070 24741 ft 487 kts 42°
2026-05-08 13:00 27.07653 116.39857 24743 ft 487 kts 42°
2026-05-08 13:00 27.09957 116.42642 24745 ft 487 kts 42°
2026-05-08 13:00 27.12263 116.45431 24745 ft 487 kts 42°
2026-05-08 13:00 27.14568 116.48221 24751 ft 487 kts 42°
2026-05-08 13:01 27.16873 116.51012 24757 ft 488 kts 42°
2026-05-08 13:01 27.19178 116.53808 24741 ft 488 kts 42°
2026-05-08 13:01 27.21484 116.56609 24744 ft 488 kts 42°
2026-05-08 13:01 27.23811 116.59385 24745 ft 488 kts 42°
2026-05-08 13:02 27.26165 116.62133 24747 ft 488 kts 41°
2026-05-08 13:02 27.28540 116.64862 24742 ft 488 kts 41°
2026-05-08 13:02 27.30917 116.67585 24742 ft 488 kts 41°
2026-05-08 13:02 27.33292 116.70317 24740 ft 488 kts 41°
2026-05-08 13:03 27.35657 116.73061 24744 ft 488 kts 41°
2026-05-08 13:03 27.38011 116.75813 24751 ft 488 kts 41°
2026-05-08 13:03 27.40364 116.78572 24737 ft 489 kts 42°
2026-05-08 13:03 27.42719 116.81333 24738 ft 489 kts 42°
2026-05-08 13:04 27.45074 116.84094 24741 ft 489 kts 42°
2026-05-08 13:04 27.47432 116.86854 24741 ft 489 kts 41°
2026-05-08 13:04 27.49787 116.89613 24738 ft 489 kts 42°
2026-05-08 13:04 27.52144 116.92376 24745 ft 489 kts 41°
2026-05-08 13:05 27.54476 116.95091 24742 ft 489 kts 41°
2026-05-08 13:05 27.56843 116.97829 24742 ft 488 kts 41°
2026-05-08 13:05 27.59217 117.00565 24742 ft 488 kts 41°
2026-05-08 13:05 27.61593 117.03301 24748 ft 488 kts 41°
2026-05-08 13:06 27.63971 117.06040 24745 ft 488 kts 41°
2026-05-08 13:06 27.66344 117.08780 24748 ft 488 kts 41°
2026-05-08 13:06 27.68709 117.11519 24753 ft 488 kts 41°
2026-05-08 13:06 27.71073 117.14265 24755 ft 488 kts 41°
2026-05-08 13:07 27.73436 117.17017 24753 ft 488 kts 41°
2026-05-08 13:07 27.75798 117.19767 24747 ft 488 kts 41°
2026-05-08 13:07 27.78163 117.22517 24762 ft 488 kts 41°
2026-05-08 13:07 27.80558 117.25294 24769 ft 500 kts 41°
2026-05-08 13:08 27.83011 117.28133 24767 ft 509 kts 41°
2026-05-08 13:08 27.85491 117.31012 24768 ft 512 kts 42°
2026-05-08 13:08 27.87977 117.33909 24771 ft 514 kts 42°
2026-05-08 13:08 27.90463 117.36812 24774 ft 514 kts 42°
2026-05-08 13:09 27.92948 117.39722 24771 ft 515 kts 42°
2026-05-08 13:09 27.95435 117.42636 24789 ft 515 kts 42°
2026-05-08 13:09 27.97926 117.45551 24779 ft 515 kts 42°
2026-05-08 13:09 28.00415 117.48465 24779 ft 515 kts 42°
2026-05-08 13:10 28.02904 117.51381 24817 ft 516 kts 42°
2026-05-08 13:10 28.05398 117.54303 24784 ft 517 kts 42°
2026-05-08 13:10 28.07900 117.57232 24791 ft 517 kts 42°
2026-05-08 13:10 28.10401 117.60157 24789 ft 517 kts 42°
2026-05-08 13:11 28.12902 117.63086 24791 ft 517 kts 42°
2026-05-08 13:11 28.15399 117.66018 24791 ft 517 kts 42°
2026-05-08 13:11 28.17896 117.68956 24788 ft 517 kts 42°
2026-05-08 13:11 28.20390 117.71892 24793 ft 517 kts 42°
2026-05-08 13:12 28.22884 117.74828 24793 ft 517 kts 42°
2026-05-08 13:12 28.25381 117.77766 24794 ft 517 kts 42°
2026-05-08 13:12 28.27874 117.80703 24796 ft 517 kts 42°
2026-05-08 13:12 28.30331 117.83597 24797 ft 516 kts 42°
2026-05-08 13:13 28.32821 117.86532 24800 ft 516 kts 42°
2026-05-08 13:13 28.35314 117.89473 24795 ft 517 kts 42°
2026-05-08 13:13 28.37804 117.92414 24799 ft 517 kts 42°
2026-05-08 13:13 28.40293 117.95359 24798 ft 517 kts 42°
2026-05-08 13:14 28.42781 117.98313 24799 ft 517 kts 43°
2026-05-08 13:14 28.45243 118.01292 24802 ft 518 kts 43°
2026-05-08 13:14 28.47689 118.04300 24792 ft 518 kts 44°
2026-05-08 13:14 28.50125 118.07323 24795 ft 518 kts 44°
2026-05-08 13:15 28.52561 118.10350 24798 ft 519 kts 43°
2026-05-08 13:15 28.55001 118.13374 24799 ft 519 kts 43°
2026-05-08 13:15 28.57447 118.16397 24798 ft 519 kts 43°
2026-05-08 13:15 28.59896 118.19413 24796 ft 519 kts 43°
2026-05-08 13:16 28.62348 118.22431 24798 ft 519 kts 43°
2026-05-08 13:16 28.64795 118.25448 24814 ft 519 kts 44°
2026-05-08 13:16 28.67242 118.28469 24795 ft 519 kts 43°
2026-05-08 13:16 28.69689 118.31494 24797 ft 519 kts 44°
2026-05-08 13:17 28.72137 118.34523 24799 ft 519 kts 44°
2026-05-08 13:17 28.74581 118.37550 24801 ft 519 kts 43°
2026-05-08 13:17 28.77027 118.40584 24805 ft 520 kts 43°
2026-05-08 13:17 28.79473 118.43618 24808 ft 520 kts 43°
2026-05-08 13:18 28.81918 118.46651 24807 ft 520 kts 43°
2026-05-08 13:18 28.84365 118.49690 24836 ft 520 kts 43°
2026-05-08 13:18 28.86808 118.52724 24801 ft 519 kts 43°
2026-05-08 13:18 28.89250 118.55762 24813 ft 519 kts 43°
2026-05-08 13:19 28.91690 118.58800 24804 ft 519 kts 43°
2026-05-08 13:19 28.94129 118.61839 24814 ft 519 kts 44°
2026-05-08 13:19 28.96568 118.64879 24817 ft 519 kts 44°
2026-05-08 13:19 28.99007 118.67921 24814 ft 519 kts 43°
2026-05-08 13:20 29.01446 118.70964 24822 ft 520 kts 43°
2026-05-08 13:20 29.03888 118.74015 24826 ft 520 kts 43°
2026-05-08 13:20 29.06323 118.77063 24816 ft 518 kts 44°
2026-05-08 13:20 29.08752 118.80106 24823 ft 518 kts 44°
2026-05-08 13:21 29.11180 118.83143 24824 ft 517 kts 44°
2026-05-08 13:21 29.13604 118.86175 24825 ft 517 kts 44°
2026-05-08 13:21 29.16029 118.89214 24824 ft 517 kts 44°
2026-05-08 13:21 29.18448 118.92254 24826 ft 517 kts 44°
2026-05-08 13:22 29.20859 118.95299 24824 ft 517 kts 44°
2026-05-08 13:22 29.23274 118.98361 24831 ft 519 kts 44°
2026-05-08 13:22 29.25691 119.01427 24836 ft 518 kts 45°
2026-05-08 13:22 29.28103 119.04476 24832 ft 517 kts 44°
2026-05-08 13:23 29.30518 119.07522 24833 ft 516 kts 44°
2026-05-08 13:23 29.32931 119.10567 24831 ft 516 kts 45°
2026-05-08 13:23 29.34529 119.12582 24831 ft 516 kts 44°
2026-05-08 13:23 29.36938 119.15624 24830 ft 515 kts 45°
2026-05-08 13:24 29.40160 119.19701 24835 ft 516 kts 45°
2026-05-08 13:24 29.42565 119.22752 24833 ft 516 kts 45°
2026-05-08 13:24 29.44159 119.24777 24713 ft 516 kts 45°
2026-05-08 13:24 29.46550 119.27821 24289 ft 512 kts 45°
2026-05-08 13:25 29.48927 119.30851 23872 ft 511 kts 45°
2026-05-08 13:25 29.51303 119.33882 23389 ft 510 kts 45°
2026-05-08 13:25 29.53679 119.36910 22895 ft 511 kts 45°
2026-05-08 13:25 29.56057 119.39940 22409 ft 512 kts 45°
2026-05-08 13:26 29.58443 119.42978 21936 ft 513 kts 46°
2026-05-08 13:26 29.60574 119.46286 21458 ft 518 kts 57°
2026-05-08 13:26 29.62070 119.50053 21047 ft 519 kts 71°
2026-05-08 13:26 29.62842 119.54082 20883 ft 512 kts 84°
2026-05-08 13:27 29.62918 119.58082 20942 ft 495 kts 92°
2026-05-08 13:27 29.62820 119.62022 20939 ft 492 kts 92°
2026-05-08 13:27 29.62721 119.65943 20940 ft 491 kts 92°
2026-05-08 13:27 29.62631 119.69863 20937 ft 490 kts 92°
2026-05-08 13:28 29.62553 119.73778 20934 ft 490 kts 91°
2026-05-08 13:28 29.62482 119.77695 20938 ft 490 kts 91°
2026-05-08 13:28 29.62409 119.81613 20896 ft 491 kts 92°
2026-05-08 13:28 29.62329 119.85533 20519 ft 489 kts 92°
2026-05-08 13:29 29.62245 119.89434 20131 ft 487 kts 92°
2026-05-08 13:29 29.62161 119.93317 19768 ft 485 kts 92°
2026-05-08 13:29 29.62074 119.97175 19397 ft 482 kts 92°
2026-05-08 13:29 29.61984 120.01009 19036 ft 479 kts 92°
2026-05-08 13:30 29.61892 120.04826 18669 ft 476 kts 92°
2026-05-08 13:30 29.61800 120.08624 18279 ft 474 kts 92°
2026-05-08 13:30 29.61709 120.12396 17861 ft 471 kts 92°
2026-05-08 13:30 29.61621 120.16140 17453 ft 464 kts 92°
2026-05-08 13:31 29.61538 120.19798 17050 ft 452 kts 92°
2026-05-08 13:31 29.61456 120.23360 16654 ft 441 kts 92°
2026-05-08 13:31 29.61374 120.26838 16262 ft 430 kts 92°
2026-05-08 13:31 29.61293 120.30238 15877 ft 421 kts 92°
2026-05-08 13:32 29.61196 120.33565 15495 ft 413 kts 93°
2026-05-08 13:32 29.61114 120.36830 15114 ft 405 kts 93°
2026-05-08 13:32 29.61046 120.39997 14745 ft 398 kts 92°
2026-05-08 13:32 29.60981 120.43188 14374 ft 391 kts 92°
2026-05-08 13:33 29.60915 120.46250 14010 ft 385 kts 92°
2026-05-08 13:33 29.60845 120.49338 13589 ft 378 kts 92°
2026-05-08 13:33 29.60772 120.52297 13184 ft 372 kts 92°
2026-05-08 13:33 29.60695 120.55223 13003 ft 359 kts 92°
2026-05-08 13:34 29.60620 120.58096 13031 ft 353 kts 92°
2026-05-08 13:34 29.60545 120.60917 13022 ft 354 kts 92°
2026-05-08 13:34 29.60471 120.63745 13031 ft 354 kts 92°
2026-05-08 13:34 29.60398 120.66572 13029 ft 354 kts 92°
2026-05-08 13:35 29.60326 120.69396 13027 ft 354 kts 92°
2026-05-08 13:35 29.60255 120.72224 13024 ft 354 kts 92°
2026-05-08 13:35 29.60182 120.75049 13033 ft 354 kts 92°
2026-05-08 13:35 29.60125 120.77872 13031 ft 354 kts 89°
2026-05-08 13:36 29.60347 120.80687 13024 ft 354 kts 80°
2026-05-08 13:36 29.60941 120.83431 13023 ft 354 kts 71°
2026-05-08 13:36 29.61887 120.86031 13027 ft 353 kts 62°
2026-05-08 13:36 29.62991 120.88561 12603 ft 353 kts 62°
2026-05-08 13:37 29.64051 120.91098 12142 ft 352 kts 67°
2026-05-08 13:37 29.64728 120.93792 11664 ft 351 kts 79°
2026-05-08 13:37 29.64923 120.96573 11210 ft 349 kts 89°
2026-05-08 13:37 29.64920 120.99319 10756 ft 348 kts 88°
2026-05-08 13:38 29.64922 121.02082 10306 ft 344 kts 88°
2026-05-08 13:38 29.64929 121.04818 9832 ft 340 kts 88°
2026-05-08 13:38 29.64937 121.07520 9342 ft 336 kts 88°
2026-05-08 13:38 29.64942 121.10191 8858 ft 333 kts 89°
2026-05-08 13:39 29.64946 121.12840 8379 ft 330 kts 89°
2026-05-08 13:39 29.64947 121.15458 7909 ft 325 kts 88°
2026-05-08 13:39 29.64949 121.18036 7449 ft 320 kts 89°
2026-05-08 13:39 29.64950 121.20581 6995 ft 317 kts 90°
2026-05-08 13:40 29.64948 121.23092 6532 ft 313 kts 90°
2026-05-08 13:40 29.64945 121.25574 6058 ft 309 kts 90°
2026-05-08 13:40 29.64944 121.28025 5576 ft 305 kts 90°
2026-05-08 13:40 29.64944 121.30435 5200 ft 296 kts 90°
2026-05-08 13:41 29.64945 121.32742 5128 ft 279 kts 90°
2026-05-08 13:41 29.64945 121.34901 5130 ft 261 kts 90°
2026-05-08 13:41 29.64942 121.36964 5141 ft 256 kts 90°
2026-05-08 13:41 29.64939 121.39001 5140 ft 254 kts 91°
2026-05-08 13:42 29.64936 121.41028 5137 ft 253 kts 90°
2026-05-08 13:42 29.64933 121.43051 5137 ft 253 kts 91°
2026-05-08 13:42 29.64931 121.45075 4845 ft 252 kts 91°
2026-05-08 13:42 29.64929 121.47080 4510 ft 249 kts 91°
2026-05-08 13:43 29.64928 121.49063 4177 ft 247 kts 91°
2026-05-08 13:43 29.64925 121.51024 3841 ft 245 kts 91°
2026-05-08 13:43 29.64885 121.52992 3522 ft 247 kts 97°
2026-05-08 13:43 29.64490 121.54887 3260 ft 241 kts 108°
2026-05-08 13:44 29.63969 121.56734 3240 ft 245 kts 108°
2026-05-08 13:44 29.63453 121.58599 3231 ft 245 kts 107°
2026-05-08 13:44 29.62942 121.60460 3232 ft 244 kts 105°
2026-05-08 13:44 29.62801 121.62380 3230 ft 244 kts 78°
2026-05-08 13:45 29.63649 121.64070 3228 ft 253 kts 44°
2026-05-08 13:45 29.65087 121.65246 3232 ft 253 kts 37°
2026-05-08 13:45 29.66564 121.66353 3231 ft 254 kts 36°
2026-05-08 13:45 29.68054 121.67436 3228 ft 253 kts 32°
2026-05-08 13:46 29.69738 121.67877 3234 ft 251 kts 356°
2026-05-08 13:46 29.71273 121.67074 3229 ft 242 kts 319°
2026-05-08 13:46 29.72305 121.65566 3231 ft 241 kts 303°
2026-05-08 13:46 29.73131 121.63885 3231 ft 239 kts 299°
2026-05-08 13:47 29.73890 121.62250 3243 ft 225 kts 300°
2026-05-08 13:47 29.74624 121.60726 3076 ft 222 kts 301°
2026-05-08 13:47 29.75421 121.59162 2610 ft 224 kts 302°
2026-05-08 13:47 29.76232 121.57635 2089 ft 221 kts 303°
2026-05-08 13:48 29.77031 121.56173 1684 ft 208 kts 303°
2026-05-08 13:48 29.77749 121.54864 1537 ft 186 kts 303°
2026-05-08 13:48 29.78412 121.53672 1329 ft 166 kts 304°
2026-05-08 13:48 29.79019 121.52602 1093 ft 155 kts 304°
2026-05-08 13:49 29.79598 121.51588 886 ft 148 kts 304°
2026-05-08 13:49 29.80159 121.50608 689 ft 145 kts 304°
2026-05-08 13:49 29.80711 121.49643 495 ft 144 kts 305°
2026-05-08 13:49 29.81244 121.48683 270 ft 141 kts 304°
2026-05-08 13:50 29.81787 121.47741 99 ft 147 kts 305°
2026-05-08 13:50 29.82347 121.46769 32 ft 136 kts 303°
2026-05-08 13:50 29.82773 121.46032 19 ft 64 kts 302°
2026-05-08 13:50 29.82813 121.45838 19 ft 12 kts 269°
2026-05-08 13:51 29.82818 121.45742 18 ft 12 kts 265°
2026-05-08 13:51 29.82763 121.45722 17 ft 9 kts 153°
2026-05-08 13:51 29.82680 121.45750 17 ft 15 kts 164°
2026-05-08 13:51 29.82607 121.45832 17 ft 15 kts 120°
2026-05-08 13:52 29.82547 121.45934 17 ft 16 kts 125°
2026-05-08 13:52 29.82482 121.46044 18 ft 17 kts 124°
2026-05-08 13:52 29.82395 121.46122 17 ft 17 kts 184°
2026-05-08 13:52 29.82308 121.46077 17 ft 10 kts 234°
2026-05-08 13:53 29.82336 121.46023 18 ft 12 kts 309°
2026-05-08 13:53 29.82402 121.46042 17 ft 0 kts 35°
2026-05-08 13:53 29.82405 121.46044 17 ft 0 kts 28°
2026-05-08 13:54 29.82406 121.46044 17 ft 0 kts 31°